Radiation Dose at Monitoring Post of Fukushima Daini Nuclear Power Station
Date,Time,MP-1(microSv/h),MP-2(microSv/h),MP-3(microSv/h),MP-4(microSv/h),MP-5(microSv/h),MP-6(microSv/h),MP-7(microSv/h),Wind Direction,Wind Velocity(m/s),Rain
2019/07/11,00:00,0.184,0.169,0.278,0.262,0.266,0.139,0.087,north-northwest,4.5,No
2019/07/11,00:10,0.187,0.168,0.278,0.264,0.263,0.139,0.087,north,4.6,No
2019/07/11,00:20,0.184,0.168,0.280,0.262,0.267,0.138,0.087,north,3.9,No
2019/07/11,00:30,0.186,0.168,0.279,0.264,0.263,0.138,0.087,north,3.6,No
2019/07/11,00:40,0.187,0.169,0.278,0.262,0.267,0.138,0.086,north-northwest,3.8,No
2019/07/11,00:50,0.186,0.167,0.279,0.264,0.265,0.138,0.087,north,3.6,No
2019/07/11,01:00,0.186,0.169,0.279,0.262,0.267,0.138,0.087,north-northwest,3.9,No
2019/07/11,01:10,0.185,0.167,0.280,0.264,0.265,0.138,0.087,north-northwest,4.6,No
2019/07/11,01:20,0.185,0.169,0.280,0.263,0.266,0.138,0.088,north-northwest,4.4,No
2019/07/11,01:30,0.186,0.166,0.281,0.264,0.265,0.138,0.088,north-northwest,4.2,No
2019/07/11,01:40,0.186,0.167,0.279,0.263,0.266,0.138,0.086,north-northwest,4.8,No
2019/07/11,01:50,0.184,0.169,0.278,0.264,0.264,0.138,0.087,north-northwest,4.3,No
2019/07/11,02:00,0.185,0.169,0.279,0.262,0.266,0.138,0.087,north,4.4,No
2019/07/11,02:10,0.185,0.167,0.278,0.264,0.263,0.139,0.087,north-northwest,4.8,No
2019/07/11,02:20,0.186,0.168,0.279,0.263,0.266,0.138,0.087,north-northwest,4.5,No
2019/07/11,02:30,0.185,0.168,0.278,0.264,0.264,0.139,0.087,north-northwest,4.5,No
2019/07/11,02:40,0.186,0.169,0.279,0.263,0.266,0.139,0.087,north-northwest,3.8,No
2019/07/11,02:50,0.185,0.168,0.278,0.264,0.263,0.138,0.087,north-northwest,4.5,No
2019/07/11,03:00,0.185,0.167,0.281,0.263,0.267,0.138,0.087,north-northwest,4.8,No
2019/07/11,03:10,0.186,0.169,0.279,0.265,0.264,0.139,0.086,northwest,3.7,No
2019/07/11,03:20,0.185,0.168,0.280,0.263,0.267,0.138,0.087,northwest,4.1,No
2019/07/11,03:30,0.185,0.168,0.278,0.263,0.265,0.138,0.087,northwest,3.9,No
2019/07/11,03:40,0.185,0.169,0.281,0.263,0.266,0.139,0.087,northwest,3.5,No
2019/07/11,03:50,0.187,0.166,0.279,0.262,0.264,0.138,0.087,northwest,3.0,No
2019/07/11,04:00,0.185,0.168,0.279,0.264,0.263,0.138,0.087,northwest,3.2,No
2019/07/11,04:10,0.186,0.167,0.280,0.262,0.265,0.138,0.086,northwest,2.7,No
2019/07/11,04:20,0.186,0.168,0.279,0.263,0.264,0.139,0.087,north-northwest,2.1,No
2019/07/11,04:30,0.186,0.167,0.279,0.263,0.266,0.138,0.087,north-northwest,2.2,No
2019/07/11,04:40,0.184,0.168,0.280,0.264,0.264,0.139,0.086,north-northwest,2.4,No
2019/07/11,04:50,0.186,0.168,0.279,0.262,0.265,0.138,0.087,north-northwest,2.5,No
2019/07/11,05:00,0.185,0.168,0.278,0.264,0.263,0.137,0.087,north-northwest,3.0,No
2019/07/11,05:10,0.185,0.168,0.280,0.263,0.265,0.139,0.087,north-northwest,1.7,No
2019/07/11,05:20,0.184,0.168,0.278,0.263,0.263,0.139,0.086,northwest,1.3,No
2019/07/11,05:30,0.186,0.168,0.280,0.264,0.266,0.139,0.087,north,1.6,No
2019/07/11,05:40,0.185,0.167,0.278,0.262,0.264,0.138,0.087,northwest,0.9,No
2019/07/11,05:50,0.186,0.167,0.278,0.264,0.264,0.138,0.087,north-northwest,2.9,No
2019/07/11,06:00,0.185,0.167,0.277,0.262,0.265,0.138,0.086,northwest,3.1,No
2019/07/11,06:10,0.186,0.168,0.280,0.264,0.262,0.138,0.087,northwest,2.6,No
2019/07/11,06:20,0.185,0.168,0.278,0.262,0.265,0.139,0.086,northwest,2.4,No
2019/07/11,06:30,0.185,0.167,0.279,0.262,0.264,0.138,0.086,northwest,1.9,No
2019/07/11,06:40,0.185,0.167,0.278,0.264,0.264,0.138,0.087,north-northwest,2.4,No
2019/07/11,06:50,0.185,0.168,0.279,0.262,0.266,0.138,0.087,north-northwest,2.3,No
2019/07/11,07:00,0.186,0.166,0.278,0.263,0.263,0.138,0.086,northwest,2.2,No
2019/07/11,07:10,0.185,0.169,0.279,0.261,0.265,0.138,0.087,northwest,2.0,No
2019/07/11,07:20,0.186,0.167,0.279,0.264,0.265,0.139,0.087,north-northwest,1.5,No
2019/07/11,07:30,0.184,0.167,0.277,0.261,0.263,0.138,0.087,northwest,1.9,No
2019/07/11,07:40,0.186,0.168,0.279,0.262,0.267,0.138,0.088,northwest,2.2,No
2019/07/11,07:50,0.186,0.167,0.279,0.263,0.264,0.138,0.086,north-northwest,1.3,No
2019/07/11,08:00,0.184,0.167,0.277,0.261,0.261,0.137,0.086,north-northeast,1.6,No
2019/07/11,08:10,0.185,0.169,0.280,0.261,0.265,0.139,0.086,northeast,1.6,No
2019/07/11,08:20,0.185,0.167,0.279,0.263,0.265,0.139,0.087,east-northeast,1.3,No
2019/07/11,08:30,0.183,0.167,0.276,0.261,0.262,0.137,0.086,east,2.8,No
2019/07/11,08:40,0.187,0.165,0.281,0.261,0.260,0.138,0.086,northeast,1.9,No
2019/07/11,08:50,0.185,0.167,0.279,0.264,0.265,0.139,0.086,northeast,1.9,No
2019/07/11,09:00,0.184,0.167,0.277,0.261,0.264,0.139,0.087,northeast,2.4,No
2019/07/11,09:10,0.186,0.166,0.281,0.260,0.263,0.138,0.087,east-northeast,2.6,No
2019/07/11,09:20,0.185,0.167,0.278,0.264,0.265,0.139,0.087,east-northeast,1.8,No
2019/07/11,09:30,0.185,0.167,0.277,0.264,0.266,0.139,0.086,northeast,2.4,No
2019/07/11,09:40,0.187,0.167,0.280,0.260,0.263,0.139,0.087,east-northeast,2.8,No
2019/07/11,09:50,0.185,0.166,0.278,0.259,0.262,0.138,0.087,northeast,1.3,No
2019/07/11,10:00,0.183,0.167,0.277,0.264,0.261,0.139,0.087,east-northeast,2.4,No
2019/07/11,10:10,0.184,0.168,0.280,0.266,0.264,0.139,0.086,east,1.6,No
2019/07/11,10:20,0.187,0.165,0.279,0.263,0.267,0.138,0.087,northeast,2.4,No
2019/07/11,10:30,0.185,0.166,0.277,0.262,0.264,0.138,0.086,east-northeast,2.0,No
2019/07/11,10:40,0.185,0.168,0.279,0.260,0.263,0.138,0.086,northeast,2.4,No
2019/07/11,10:50,0.185,0.168,0.279,0.265,0.262,0.139,0.086,northeast,1.9,No
2019/07/11,11:00,0.186,0.166,0.279,0.263,0.264,0.138,0.087,east,2.7,No
2019/07/11,11:10,0.185,0.166,0.276,0.262,0.268,0.138,0.087,east,3.5,No
2019/07/11,11:20,0.183,0.166,0.277,0.261,0.265,0.139,0.087,east,2.9,No
2019/07/11,11:30,0.186,0.168,0.281,0.261,0.264,0.138,0.085,east,3.4,No
2019/07/11,11:40,0.186,0.168,0.280,0.264,0.263,0.139,0.087,east-southeast,2.7,No
2019/07/11,11:50,0.185,0.166,0.278,0.265,0.262,0.138,0.087,east,3.4,No
2019/07/11,12:00,0.183,0.166,0.277,0.263,0.263,0.138,0.087,east-southeast,2.8,No
2019/07/11,12:10,0.184,0.168,0.278,0.262,0.265,0.140,0.087,east-southeast,2.7,No
2019/07/11,12:20,0.187,0.168,0.281,0.264,0.267,0.139,0.086,east-southeast,2.8,No
2019/07/11,12:30,0.186,0.167,0.280,0.265,0.266,0.138,0.087,east-southeast,2.8,No
2019/07/11,12:40,0.184,0.167,0.278,0.264,0.263,0.139,0.088,east-southeast,3.3,No
2019/07/11,12:50,0.183,0.168,0.280,0.262,0.262,0.139,0.086,east-southeast,3.7,No
2019/07/11,13:00,0.185,0.168,0.280,0.264,0.264,0.139,0.087,east,4.5,No
2019/07/11,13:10,0.188,0.167,0.279,0.266,0.266,0.139,0.087,east,4.1,No
2019/07/11,13:20,0.186,0.166,0.276,0.263,0.265,0.140,0.088,east-southeast,4.0,No
2019/07/11,13:30,0.183,0.167,0.281,0.260,0.264,0.139,0.087,east-southeast,3.3,No
2019/07/11,13:40,0.184,0.169,0.283,0.265,0.263,0.138,0.086,east-southeast,3.2,No
2019/07/11,13:50,0.184,0.168,0.279,0.266,0.264,0.139,0.086,southeast,2.7,No
2019/07/11,14:00,0.186,0.167,0.277,0.265,0.264,0.139,0.087,east-southeast,3.0,No
2019/07/11,14:10,0.186,0.166,0.278,0.262,0.262,0.140,0.088,east-southeast,2.7,No
2019/07/11,14:20,0.185,0.167,0.281,0.262,0.264,0.139,0.087,east-southeast,3.2,No
2019/07/11,14:30,0.184,0.170,0.280,0.265,0.267,0.139,0.086,east-southeast,4.0,No
2019/07/11,14:40,0.184,0.169,0.277,0.265,0.266,0.139,0.087,east-southeast,3.9,No
2019/07/11,14:50,0.187,0.167,0.280,0.262,0.264,0.140,0.087,east-southeast,4.4,No
2019/07/11,15:00,0.185,0.168,0.281,0.264,0.264,0.139,0.087,east-southeast,3.9,No
2019/07/11,15:10,0.185,0.169,0.280,0.266,0.267,0.138,0.087,east-southeast,3.6,No
2019/07/11,15:20,0.185,0.168,0.279,0.263,0.268,0.139,0.088,east-southeast,4.1,No
2019/07/11,15:30,0.188,0.168,0.281,0.264,0.265,0.139,0.087,southeast,3.6,No
2019/07/11,15:40,0.185,0.170,0.278,0.266,0.263,0.139,0.087,southeast,2.7,No
2019/07/11,15:50,0.185,0.167,0.280,0.263,0.269,0.139,0.087,southeast,3.2,No
2019/07/11,16:00,0.185,0.167,0.282,0.263,0.266,0.141,0.087,east-southeast,3.4,No
2019/07/11,16:10,0.187,0.169,0.279,0.267,0.263,0.138,0.086,east-southeast,2.3,No
2019/07/11,16:20,0.185,0.168,0.281,0.262,0.264,0.139,0.087,east-southeast,2.5,No
2019/07/11,16:30,0.185,0.167,0.281,0.264,0.269,0.139,0.088,east-southeast,2.0,No
2019/07/11,16:40,0.187,0.169,0.279,0.265,0.267,0.138,0.087,east-southeast,2.6,No
2019/07/11,16:50,0.186,0.168,0.281,0.264,0.263,0.139,0.087,east-southeast,3.5,No
2019/07/11,17:00,0.185,0.168,0.281,0.265,0.267,0.139,0.087,east-southeast,3.9,No
2019/07/11,17:10,0.187,0.170,0.279,0.265,0.266,0.139,0.087,east-southeast,3.8,No
2019/07/11,17:20,0.187,0.168,0.282,0.262,0.265,0.139,0.087,southeast,3.2,No
2019/07/11,17:30,0.184,0.169,0.280,0.265,0.268,0.140,0.088,southeast,2.8,No
2019/07/11,17:40,0.186,0.168,0.280,0.264,0.265,0.139,0.087,southeast,2.6,No
2019/07/11,17:50,0.186,0.168,0.282,0.264,0.265,0.139,0.088,south-southeast,2.8,No
2019/07/11,18:00,0.185,0.170,0.279,0.266,0.268,0.139,0.087,southeast,2.1,No
2019/07/11,18:10,0.186,0.169,0.281,0.262,0.265,0.139,0.087,southeast,2.0,No
2019/07/11,18:20,0.185,0.169,0.280,0.265,0.267,0.140,0.087,southeast,2.5,No
2019/07/11,18:30,0.185,0.169,0.280,0.264,0.266,0.138,0.087,southeast,1.6,No
2019/07/11,18:40,0.186,0.168,0.282,0.265,0.266,0.140,0.087,south-southeast,1.5,No
2019/07/11,18:50,0.185,0.170,0.279,0.265,0.268,0.140,0.088,south,0.9,No
2019/07/11,19:00,0.187,0.168,0.282,0.263,0.265,0.139,0.087,south,1.3,No
2019/07/11,19:10,0.186,0.169,0.279,0.267,0.267,0.140,0.088,south,1.7,No
2019/07/11,19:20,0.184,0.167,0.280,0.265,0.265,0.139,0.086,south,1.4,No
2019/07/11,19:30,0.186,0.169,0.282,0.265,0.265,0.139,0.087,south-southwest,1.3,No
2019/07/11,19:40,0.186,0.169,0.279,0.266,0.268,0.140,0.087,south-southwest,1.9,No
2019/07/11,19:50,0.186,0.168,0.282,0.263,0.264,0.139,0.086,south-southwest,1.5,No
2019/07/11,20:00,0.186,0.169,0.279,0.265,0.266,0.139,0.087,southwest,1.4,No
2019/07/11,20:10,0.186,0.170,0.283,0.264,0.266,0.139,0.087,south-southwest,0.8,No
2019/07/11,20:20,0.187,0.169,0.281,0.265,0.266,0.139,0.088,south-southwest,1.4,No
2019/07/11,20:30,0.185,0.167,0.280,0.266,0.268,0.140,0.087,south-southwest,2.2,No
2019/07/11,20:40,0.187,0.170,0.282,0.264,0.265,0.139,0.088,south-southwest,2.5,No
2019/07/11,20:50,0.186,0.169,0.279,0.266,0.267,0.139,0.087,south,3.1,No
2019/07/11,21:00,0.187,0.170,0.282,0.264,0.265,0.140,0.088,south,3.0,No
2019/07/11,21:10,0.186,0.168,0.281,0.265,0.266,0.140,0.088,south,2.7,No
2019/07/11,21:20,0.185,0.170,0.281,0.263,0.267,0.139,0.087,south,2.4,No
2019/07/11,21:30,0.185,0.170,0.281,0.265,0.264,0.139,0.088,south,2.0,No
2019/07/11,21:40,0.185,0.169,0.281,0.265,0.267,0.141,0.087,south,3.2,No
2019/07/11,21:50,0.188,0.168,0.282,0.266,0.266,0.139,0.087,south,3.2,No
2019/07/11,22:00,0.186,0.170,0.280,0.267,0.267,0.141,0.088,south,4.4,No
2019/07/11,22:10,0.186,0.168,0.282,0.265,0.265,0.139,0.087,south,4.6,No
2019/07/11,22:20,0.187,0.169,0.280,0.267,0.265,0.139,0.088,south,4.8,No
2019/07/11,22:30,0.186,0.168,0.281,0.264,0.266,0.140,0.087,south,4.5,No
2019/07/11,22:40,0.186,0.169,0.280,0.266,0.266,0.139,0.088,south-southwest,4.3,No
2019/07/11,22:50,0.186,0.169,0.283,0.265,0.268,0.141,0.087,south,3.8,Yes
2019/07/11,23:00,0.186,0.169,0.280,0.266,0.265,0.139,0.087,south,4.0,Yes
2019/07/11,23:10,0.186,0.169,0.282,0.265,0.268,0.141,0.087,-,CALM,Yes
2019/07/11,23:20,0.187,0.169,0.281,0.265,0.267,0.140,0.089,south,2.6,Yes
2019/07/11,23:30,0.188,0.170,0.282,0.266,0.268,0.140,0.089,south,5.0,Yes
2019/07/11,23:40,0.188,0.169,0.283,0.265,0.267,0.141,0.089,south,4.9,Yes
2019/07/11,23:50,0.189,0.171,0.282,0.267,0.266,0.141,0.089,south,4.8,Yes
